Weather in Paisley

United Kingdom     55°51′02″N   4°25′49″W
temp.,
°C
wind,
m/s
gust,
m/s
humid.,
%
clouds,
%
prec.,
mm/h
press.,
hPa
HPBL,
m
9 may, sun
sun901:00+5ene2599100 1.4 991195
04:00+6ene2398100 0.0 99087
07:00+7s2693100 0.0 989304
10:00+8s41192100 0.4 9891016
13:00+11s61288100 1.8 9891289
16:00+12s61285100 1.3 9891311
19:00+11s5118392 1.9 9891130
22:00+7se249296 0.0 990102
10 may, mon
mon1001:00+8ese2790100 0.0 990209
04:00+8se3790100 0.0 990241
07:00+9ese379290 0.3 991320
10:00+9se589299 1.1 992618
13:00+9se5993100 2.8 992743
16:00+11sse5986100 0.5 9931220
19:00+10s498763 1.1 994992
22:00+8se4990100 0.2 995505
11 may, tue
tue1101:00+8sse51195100 0.3 996765
04:00+6ssw91395100 0.8 9991009
07:00+6ssw71291100 1.5 1002915
10:00+9ssw61073100 0.0 10041153
13:00+12sw576014 0.0 10061596
16:00+12sw23698 0.2 1006873
19:00+13ene1269100 0.3 1006150
22:00+8ene3896100 2.8 1006511
12 may, wed
wed1201:00+8ene61196100 7.2 1005738
04:00+7ene5109699 0.9 1005472
07:00+7ene4796100 1.3 1005363
10:00+9e259270 0.1 1006438
13:00+11se457768 0.9 1007803
16:00+12e348090 0.9 1007696
19:00+10ene3589100 2.4 1007173
22:00+8ene5997100 1.1 1009388
13 may, thu
thu1301:00+8ene599799 1.6 1009471
04:00+8ene3698100 0.2 1010369
07:00+8ene3798100 0.4 1010362
10:00+9ene589489 0.3 1012579
13:00+10ene689299 1.3 1012756
16:00+9ene6984100 0.2 1013686
19:00+10ene697397 0.2 1013699
22:00+6ene4987100 0.0 1014359